Voltar ao catálogo

USA 419

AtivoMilitarVLEO
NORAD 61040·PAYLOAD·🇺🇸 United States

Lançado Sep 6, 2024 de Vandenberg Space Force Base

Loading…

Próximas Passagens (próximas 24 horas)

TLE

ObsoletoSource: Mike McCants

Época: Aug 24, 2026, 22:49 UTC

1 61040U 24160V   26236.95106491 0.00000000  00000-0  00000-0 0    01
2 61040  70.0221 184.3742 0004019 247.8038 112.1961 14.96713556    08

Acompanhe USA 419 em tempo real com AllMySat

Download on the App Store